Flag for Germany Weather past 2 weeks in Stuttgart, Baden-Württemberg, Germany

Now
32 °F

Light snow. Passing clouds.


Feels Like: 26 °F
Forecast: 20 / 31 °F
Wind: 6 mph from West

Location: Stuttgart-Echterdingen

Current Time: Feb 2, 2015 at 3:55:11 AM

Latest Report: Feb 2, 2015 at 3:20 AM


Visibility: N/A

Pressure: 29.42 "Hg

Humidity: 93%

Dew point: 30 °F

Location of StuttgartLocation

Historic Weather in Stuttgart — Graph

°F

Stuttgart temperature yesterday

Maximum temperature yesterday: 34 °F (at 3:50 AM)
Minimum temperature yesterday: 30 °F (at 1:20 AM)
Average temperature yesterday: 32 °F

Past Weeks' High & Low Weather Summary

 TemperatureHumidityPressure
High39 °F (Jan 28, 2:20 PM)100% (Jan 18, 2:50 AM)30.39 "Hg (Jan 18, 2:50 AM)
Low27 °F (Jan 18, 6:20 AM)65% (Jan 29, 12:20 PM)28.74 "Hg (Jan 30, 1:20 AM)
Average33 °F88%29.78 "Hg
* Reported Jan 18 2:20 AM — Feb 2 2:50 AM, Stuttgart, Weather by CustomWeather, © 2014

Note: Actual official high and low records may vary slightly from our data, if they occured in-between our weather recording intervals... More about our weather records

Advertising

Stuttgart weather history for previous 24 hours

 ConditionsComfort  
Time TempWeatherWind HumidityBarometerVisibility
2:50 AM
Feb 2
32 °FLight snow. Passing clouds.7 mph93%29.42 "HgN/A
2:20 AM32 °FLight snow. Mostly cloudy.8 mph93%29.39 "Hg5 mi
1:50 AM32 °FSnow. Mostly cloudy.7 mph93%29.39 "Hg2 mi
1:20 AM32 °FSnow. Mostly cloudy.8 mph93%29.39 "Hg2 mi
12:50 AM32 °FLight snow. Partly cloudy.5 mph93%29.39 "Hg4 mi
12:20 AM32 °FLight snow. Passing clouds.6 mph93%29.39 "Hg4 mi
11:50 PM
Feb 1
32 °FLight snow. Passing clouds.7 mph87%29.39 "Hg4 mi
11:20 PM34 °FLight snow. Partly cloudy.7 mph81%29.39 "HgN/A
10:50 PM34 °FLight snow. Passing clouds.8 mph81%29.39 "HgN/A
10:20 PM32 °FPartly cloudy.8 mph87%29.39 "HgN/A
9:50 PM32 °FLight snow. Passing clouds.6 mph93%29.39 "HgN/A
9:20 PM32 °FLight snow. Passing clouds.7 mph93%29.39 "HgN/A
8:50 PM32 °FLight snow. Passing clouds.5 mph93%29.39 "HgN/A
8:20 PM32 °FPassing clouds.7 mph87%29.39 "HgN/A
7:50 PM32 °FLight snow. Partly cloudy.7 mph93%29.39 "HgN/A
7:20 PM34 °FPartly cloudy.6 mph81%29.39 "HgN/A
6:50 PM34 °FPartly cloudy.8 mph81%29.39 "HgN/A
6:20 PM34 °FPartly cloudy.12 mph81%29.36 "HgN/A
5:50 PM34 °FPassing clouds.12 mph87%29.36 "HgN/A
5:20 PM34 °FLight snow. Passing clouds.13 mph87%29.36 "HgN/A
4:50 PM32 °FLight snow. Broken clouds.8 mph100%29.33 "Hg3 mi
4:20 PM32 °FSnow showers. Broken clouds.6 mph93%29.33 "Hg2 mi
3:50 PM32 °FSnow showers. Broken clouds.6 mph93%29.30 "Hg2 mi
3:20 PM32 °FSnow flurries. Broken clouds.5 mph93%29.30 "Hg4 mi
2:50 PM32 °FSnow flurries. Broken clouds.5 mph93%29.30 "Hg3 mi
2:20 PM32 °FSnow flurries. Broken clouds.5 mph93%29.30 "Hg4 mi
1:50 PM32 °FSnow showers. Partly sunny.7 mph93%29.30 "Hg1 mi
1:20 PM34 °FScattered showers. Broken clouds.5 mph81%29.27 "HgN/A
12:50 PM34 °FScattered clouds.3 mph81%29.27 "HgN/A
12:20 PM34 °FSnow flurries. Broken clouds.3 mph81%29.27 "HgN/A
11:50 AM34 °FSnow flurries. Broken clouds.6 mph81%29.27 "HgN/A
11:20 AM34 °FSnow flurries. Broken clouds.3 mph81%29.27 "HgN/A
10:50 AM32 °FBroken clouds.3 mph87%29.27 "HgN/A
10:20 AM32 °FBroken clouds.6 mph93%29.24 "Hg6 mi
9:50 AM32 °FSnow flurries. Partly sunny.8 mph93%29.24 "Hg2 mi
9:20 AM32 °FSnow flurries. Broken clouds.7 mph87%29.24 "HgN/A
8:50 AM32 °FBroken clouds.6 mph87%29.21 "HgN/A
8:20 AM30 °FBroken clouds.7 mph93%29.21 "HgN/A
7:50 AM32 °FPartly cloudy.6 mph87%29.18 "HgN/A
7:20 AM32 °FLight snow. Partly cloudy.5 mph87%29.18 "HgN/A
6:50 AM32 °FLight snow. Partly cloudy.7 mph87%29.15 "HgN/A
6:20 AM32 °FLight snow. Passing clouds.8 mph87%29.15 "HgN/A
5:50 AM32 °FPartly cloudy.3 mph80%29.15 "HgN/A
5:20 AM30 °FPartly cloudy.3 mph80%29.15 "HgN/A
4:50 AM30 °FPassing clouds.2 mph80%29.15 "HgN/A
4:20 AM32 °FClear.6 mph75%29.12 "Hg10 mi
3:50 AM34 °FClear.5 mph70%29.12 "Hg10 mi
3:20 AM32 °FClear.5 mph80%29.15 "Hg10 mi
Weather by CustomWeather, © 2014

See weather overviewHow to use our weather pages